星链-2219 (STARLINK-2219 )

导读

STARLINK-2219是美国SpaceX公司星链星座中的一颗低轨互联网通信卫星,于2021年5月15日发射升空。星链项目旨在构建全球卫星互联网,为地面网络难以覆盖的偏远地区提供高速低延迟网络服务,同时该卫星也可服务于军事和应急通信场景。作为星链大规模组网中的一员,它运行在近地轨道,助力SpaceX推进全球互联网覆盖目标,但星链大规模部署也引发了太空拥堵等争议。

Basic Information
目录编号:
48569
目录名称:
STARLINK-2219
国际标识:
2021-041S
轨道中心:
EARTH
卫星名称:
星链-2219
卫星全名:
星链-2219 (STARLINK-2219 )
卫星状态:
在轨 (已飞行1945 天)
发射日期:
2021-05-15 UTC
国别 :
美国 (US)
星等 :
--
This satellite is enrolled in the Space Conjunction Data Service (SCDS) and the current flight risk assessment level is: No High Risk
Orbit Information
数据来源 国际轨道数据
星历时间: 2026-09-11T14:26:48+0800
8小时前
查看轨道信息
半长轴: 6848.89km
偏心率: 0.0001161
轨道倾角: 53.161°
近地点辐角 80.560°
升交点赤经 343.085°
平近点角 279.553°
近地点: 469.957km
远地点: 471.549km
周期: 94.013分钟
每日圈数: 15.316958
Detailed Information
固有亮度:
5
最大亮度:
2.5
卫星平台:
Starlink V1.0
覆盖范围:
全球
运营商:
太空探索技术公司
运营商所在国:
美国
制造商(研发单位):
太空探索技术公司
制造商所在国:
美国
使用方式:
暂无
Satellite Introduction
星链(Starlink)计划是由太空探索技术公司(SpaceX)提出的一个巨型低轨卫星互联网星座项目,计划在2019年至2024年间在太空搭建由约1.2万颗卫星组成的“星链”网络,其中1584颗将部署在地球上空550千米处的近地轨道,并从2020年开始工作。该卫星仍在工作。
2D Orbit Map
3D Orbit Map
Orbit Altitude Analysis Chart
Orbit Inclination Analysis Chart
Orbit Comprehensive Analysis Chart
View Comprehensive Chart
Conjunction Data List
Event ID Objects TCA Miss Dist (km) Collision Risk Probability Collision Risk Index (CRI) Action
CDM_260914-073604-856906-582921
2026-09-14T
07:36:38+0000
1.054 km
极远距离
8.60575E-6 低风险 0.54
CDM_260914-034104-856906-582921
2026-09-14T
03:41:44+0000
1.865 km
极远距离
1.454262E-6 低风险 0.38
CDM_260913-002304-856905-634021
2026-09-13T
00:23:00+0000
2.533 km
极远距离
1.407842E-6 低风险 0.38
CDM_260914-062504-856906-756021
2026-09-14T
06:25:43+0000
2.898 km
极远距离
1.394629E-6 低风险 0.38
CDM_260911-183804-856906-796121
2026-09-11T
18:38:27+0000
2.565 km
极远距离
1.352438E-6 低风险 0.38
CDM_260914-051504-856906-582921
2026-09-14T
05:15:42+0000
1.929 km
极远距离
1.336988E-6 低风险 0.38
CDM_260912-053404-856906-889523
2026-09-12T
05:34:27+0000
2.877 km
极远距离
1.284426E-6 低风险 0.37
Miss Distance Evolution Trend with All Objects
Collision Probability Evolution Trend with All Objects